Torna al catalogo

STARLINK-36040

AttivoComunicazioniVLEO
NORAD 66614·PAYLOAD·🇺🇸 United States

Lanciato Nov 22, 2025 da Cape Canaveral Space Force Station

Loading…

Prossimi Passaggi (prossime 24 ore)

TLE

AggiornatoSource: CelesTrak SupGP

Epoca: Sep 15, 2026, 02:51 UTC

1 66614C 25270AC  26258.11923611 -.00025026  00000+0 -90651-3 0  2584
2 66614  43.0041  66.7272 0001670 273.1319  50.2796 15.27588683    10

Traccia STARLINK-36040 in tempo reale con AllMySat

Download on the App Store